Meteo Giornale » Osservazioni meteo Gran Bretagna » Guernsey
ore: 20:20 - Osservazioni Meteo Guernsey
Lat. 49° 26' N Lon. 2° 36' W Alt. 102 metri s.l.m.
16 °C
Poco Nuvoloso
Temp. 24 Ore
16 °C
20 °C
Ovest
16.7 Km/h
Dew point 13 °C
Umidità 82 %
Visibilità 10 Km
Il sole sorge alle ore 06:25
Il sole tramonta alle ore 19:56
| Data e Ora | Cielo e Fenomeni | T °C | DP °C | Um. % | Pres. hPa | Vis. km | Vento km/h | |
|---|---|---|---|---|---|---|---|---|
| Oggi h: 20:20 | Poco Nuvoloso | 16 | 13 | 82 | 1020 | 10 | O 16.7 | |
| Oggi h: 19:50 | Poco Nuvoloso | 16 | 13 | 82 | 1020 | 10 | O 20.3 | |
| Oggi h: 19:20 | Poco Nuvoloso | 17 | 13 | 77 | 1020 | 10 | O 18.5 | |
| Oggi h: 18:50 | Poco Nuvoloso | 17 | 13 | 77 | 1020 | 10 | O 20.3 | |
| Oggi h: 18:20 | Poco Nuvoloso | 18 | 12 | 67 | 1020 | 10 | O 22.2 | |
| Oggi h: 17:50 | Poco Nuvoloso | 18 | 14 | 77 | 1020 | 10 | O 25.9 | |
| Oggi h: 17:20 | Poco Nuvoloso | 19 | 14 | 72 | 1019 | 10 | O 25.9 | |
| Oggi h: 16:50 | Poco Nuvoloso | 18 | 14 | 77 | 1019 | 10 | O 25.9 | |
| Oggi h: 16:20 | Poco Nuvoloso | 19 | 15 | 77 | 1019 | 10 | O 29.6 | |
| Oggi h: 15:50 | Poco Nuvoloso | 19 | 15 | 77 | 1019 | 10 | O 29.6 | |
| Oggi h: 15:20 | Poco Nuvoloso | 19 | 15 | 77 | 1019 | 10 | O 27.8 | |
| Oggi h: 14:50 | Poco Nuvoloso | 20 | 15 | 72 | 1018 | 10 | O 27.8 | |
| Oggi h: 14:20 | Poco Nuvoloso | 20 | 15 | 72 | 1018 | 10 | O 27.8 | |
| Oggi h: 13:50 | Poco Nuvoloso | 19 | 15 | 77 | 1018 | 10 | O 31.5 | |
| Oggi h: 13:20 | Poco Nuvoloso | 19 | 15 | 77 | 1017 | 10 | O 29.6 | |
| Oggi h: 12:50 | Poco Nuvoloso | 19 | 15 | 77 | 1017 | 10 | O 27.8 | |
| Oggi h: 12:20 | Poco Nuvoloso | 20 | 15 | 72 | 1017 | 10 | O 29.6 | |
| Oggi h: 11:50 | Nuvoloso | 19 | 15 | 77 | 1016 | 10 | O 31.5 | |
| Oggi h: 11:20 | Nuvoloso | 19 | 15 | 77 | 1016 | 10 | O 27.8 | |
| Oggi h: 10:50 | Poco Nuvoloso | 19 | 14 | 72 | 1016 | 10 | O 27.8 | |
| Oggi h: 10:20 | Poco Nuvoloso | 19 | 14 | 72 | 1015 | 10 | O 29.6 | |
| Oggi h: 09:50 | Poco Nuvoloso | 18 | 14 | 77 | 1015 | 10 | O 29.6 | |
| Oggi h: 09:20 | Nuvoloso | 18 | 14 | 77 | 1014 | 10 | O 27.8 | |
| Oggi h: 08:50 | Molto Nuvoloso | 17 | 15 | 88 | 1014 | 10 | O 27.8 | |
| Oggi h: 08:20 | Molto Nuvoloso | 17 | 15 | 88 | 1013 | 10 | O 24 | |
| Oggi h: 07:50 | Poco Nuvoloso | 17 | 15 | 88 | 1013 | 10 | O 25.9 | |
| Oggi h: 07:20 | Pioggia nelle vicinanze | 16 | 15 | 93 | 1012 | 10 | O 27.8 | |
| Oggi h: 06:50 | Pioggia | 17 | 15 | 88 | 1012 | 10 | O 33.3 | |
| Oggi h: 06:20 | Pioggia nelle vicinanze | 17 | 15 | 88 | 1012 | 10 | O 33.3 | |
| Oggi h: 05:50 | Pioggia nelle vicinanze | 16 | 15 | 93 | 1011 | 10 | O 33.3 | |
| Oggi h: 05:20 | Nuvoloso | 17 | 15 | 88 | 1011 | 10 | O/SO 35.2 | |
| Oggi h: 04:50 | Molto Nuvoloso | 17 | 14 | 82 | 1011 | 10 | O/SO 38.8 | |
| Oggi h: 04:20 | Pioggia nelle vicinanze | 17 | 14 | 82 | 1011 | 10 | O/SO 35.2 | |
| Oggi h: 03:50 | Poco Nuvoloso | 16 | 14 | 87 | 1010 | 10 | O/SO 33.3 | |
| Oggi h: 02:50 | Nuvoloso | 17 | 15 | 88 | 1010 | 10 | O/SO 35.2 | |
| Oggi h: 01:50 | Nuvoloso | 16 | 15 | 93 | 1010 | 10 | O/SO 37 | |
| Oggi h: 00:50 | Pioggia nelle vicinanze | 17 | 15 | 88 | 1009 | 10 | O/SO 35.2 | |
| Ieri h: 23:50 | Nuvoloso | 17 | 15 | 88 | 1009 | 10 | SO 38.8 | |
| Ieri h: 22:50 | Pioggia nelle vicinanze | 17 | 15 | 88 | 1009 | 10 | SO 35.2 | |
| Ieri h: 21:50 | Pioggia nelle vicinanze | 17 | 15 | 88 | 1009 | 10 | SO 29.6 | |
| Ieri h: 21:20 | Nuvoloso | 17 | 15 | 88 | 1009 | 10 | SO 29.6 | |
| Ieri h: 20:50 | Poco Nuvoloso | 17 | 14 | 82 | 1010 | 10 | SO 31.5 | |



